Year,Month,Day,Hour,Minute,Value (Times are PST for temperature in C)
2016,08,19,00,00,24.10
2016,08,19,00,01,24.10
2016,08,19,00,02,24.20
2016,08,19,00,03,24.30
2016,08,19,00,04,24.40
2016,08,19,00,05,24.50
2016,08,19,00,06,24.50
2016,08,19,00,07,24.50
2016,08,19,00,08,24.50
2016,08,19,00,09,24.50
2016,08,19,00,10,24.50
2016,08,19,00,11,24.50
2016,08,19,00,12,24.50
2016,08,19,00,13,24.50
2016,08,19,00,14,24.60
2016,08,19,00,15,24.60
2016,08,19,00,16,24.60
2016,08,19,00,17,24.60
2016,08,19,00,18,24.60
2016,08,19,00,19,24.60
2016,08,19,00,20,24.60
2016,08,19,00,21,24.50
2016,08,19,00,22,24.50
2016,08,19,00,23,24.50
2016,08,19,00,24,24.50
2016,08,19,00,25,24.40
2016,08,19,00,26,24.40
2016,08,19,00,27,24.40
2016,08,19,00,28,24.40
2016,08,19,00,29,24.30
2016,08,19,00,30,24.30
2016,08,19,00,31,24.30
2016,08,19,00,32,24.30
2016,08,19,00,33,24.20
2016,08,19,00,34,24.20
2016,08,19,00,35,24.20
2016,08,19,00,36,24.20
2016,08,19,00,37,24.20
2016,08,19,00,38,24.20
2016,08,19,00,39,24.10
2016,08,19,00,40,24.10
2016,08,19,00,41,24.20
2016,08,19,00,42,24.20
2016,08,19,00,43,24.10
2016,08,19,00,44,24.10
2016,08,19,00,45,24.10
2016,08,19,00,46,24.20
2016,08,19,00,47,24.20
2016,08,19,00,48,24.20
2016,08,19,00,49,24.20
2016,08,19,00,50,24.20
2016,08,19,00,51,24.20
2016,08,19,00,52,24.20
2016,08,19,00,53,24.20
2016,08,19,00,54,24.20
2016,08,19,00,55,24.30
2016,08,19,00,56,24.30
2016,08,19,00,57,24.30
2016,08,19,00,58,24.30
2016,08,19,00,59,24.40
2016,08,19,01,00,24.40
2016,08,19,01,01,24.40
2016,08,19,01,02,24.40
2016,08,19,01,03,24.40
2016,08,19,01,04,24.40
2016,08,19,01,05,24.40
2016,08,19,01,06,24.40
2016,08,19,01,07,24.50
2016,08,19,01,08,24.50
2016,08,19,01,09,24.50
2016,08,19,01,10,24.50
2016,08,19,01,11,24.50
2016,08,19,01,12,24.60
2016,08,19,01,13,24.60
2016,08,19,01,14,24.60
2016,08,19,01,15,24.60
2016,08,19,01,16,24.60
2016,08,19,01,17,24.60
2016,08,19,01,18,24.60
2016,08,19,01,19,24.50
2016,08,19,01,20,24.50
2016,08,19,01,21,24.50
2016,08,19,01,22,24.60
2016,08,19,01,23,24.60
2016,08,19,01,24,24.60
2016,08,19,01,25,24.70
2016,08,19,01,26,24.70
2016,08,19,01,27,24.70
2016,08,19,01,28,24.70
2016,08,19,01,29,24.70
2016,08,19,01,30,24.80
2016,08,19,01,31,24.80
2016,08,19,01,32,24.80
2016,08,19,01,33,24.90
2016,08,19,01,34,24.90
2016,08,19,01,35,25.00
2016,08,19,01,36,25.00
2016,08,19,01,37,25.00
2016,08,19,01,38,25.00
2016,08,19,01,39,25.00
2016,08,19,01,40,25.10
2016,08,19,01,41,25.10
2016,08,19,01,42,25.10
2016,08,19,01,43,25.00
2016,08,19,01,44,25.00
2016,08,19,01,45,25.00
2016,08,19,01,46,25.00
2016,08,19,01,47,25.00
2016,08,19,01,48,25.00
2016,08,19,01,49,25.00
2016,08,19,01,50,25.00
2016,08,19,01,51,25.00
2016,08,19,01,52,25.00
2016,08,19,01,53,25.00
2016,08,19,01,54,25.00
2016,08,19,01,55,25.00
2016,08,19,01,56,25.00
2016,08,19,01,57,25.00
2016,08,19,01,58,25.00
2016,08,19,01,59,25.00
2016,08,19,02,00,25.00
2016,08,19,02,01,25.00
2016,08,19,02,02,25.00
2016,08,19,02,03,25.00
2016,08,19,02,04,25.00
2016,08,19,02,05,25.00
2016,08,19,02,06,25.00
2016,08,19,02,07,25.00
2016,08,19,02,08,25.00
2016,08,19,02,09,25.00
2016,08,19,02,10,25.00
2016,08,19,02,11,25.00
2016,08,19,02,12,25.00
2016,08,19,02,13,25.00
2016,08,19,02,14,25.00
2016,08,19,02,15,25.00
2016,08,19,02,16,25.00
2016,08,19,02,17,25.00
2016,08,19,02,18,25.00
2016,08,19,02,19,24.90
2016,08,19,02,20,24.90
2016,08,19,02,21,24.90
2016,08,19,02,22,24.90
2016,08,19,02,23,24.90
2016,08,19,02,24,24.80
2016,08,19,02,25,24.80
2016,08,19,02,26,24.70
2016,08,19,02,27,24.70
2016,08,19,02,28,24.70
2016,08,19,02,29,24.70
2016,08,19,02,30,24.70
2016,08,19,02,31,24.60
2016,08,19,02,32,24.60
2016,08,19,02,33,24.60
2016,08,19,02,34,24.60
2016,08,19,02,35,24.50
2016,08,19,02,36,24.50
2016,08,19,02,37,24.50
2016,08,19,02,38,24.40
2016,08,19,02,39,24.40
2016,08,19,02,40,24.40
2016,08,19,02,41,24.40
2016,08,19,02,42,24.30
2016,08,19,02,43,24.30
2016,08,19,02,44,24.30
2016,08,19,02,45,24.30
2016,08,19,02,46,24.20
2016,08,19,02,47,24.20
2016,08,19,02,48,24.20
2016,08,19,02,49,24.20
2016,08,19,02,50,24.10
2016,08,19,02,51,24.10
2016,08,19,02,52,24.10
2016,08,19,02,53,24.10
2016,08,19,02,54,24.10
2016,08,19,02,55,24.10
2016,08,19,02,56,24.10
2016,08,19,02,57,24.10
2016,08,19,02,58,24.10
2016,08,19,02,59,24.10
2016,08,19,03,00,24.20
2016,08,19,03,01,24.20
2016,08,19,03,02,24.20
2016,08,19,03,03,24.20
2016,08,19,03,04,24.20
2016,08,19,03,05,24.20
2016,08,19,03,06,24.20
2016,08,19,03,07,24.20
2016,08,19,03,08,24.20
2016,08,19,03,09,24.20
2016,08,19,03,10,24.20
2016,08,19,03,11,24.20
2016,08,19,03,12,24.20
2016,08,19,03,13,24.20
2016,08,19,03,14,24.20
2016,08,19,03,15,24.20
2016,08,19,03,16,24.20
2016,08,19,03,17,24.20
2016,08,19,03,18,24.20
2016,08,19,03,19,24.10
2016,08,19,03,20,24.10
2016,08,19,03,21,24.10
2016,08,19,03,22,24.10
2016,08,19,03,23,24.10
2016,08,19,03,24,24.10
2016,08,19,03,25,24.10
2016,08,19,03,26,24.10
2016,08,19,03,27,24.10
2016,08,19,03,28,24.10
2016,08,19,03,29,24.10
2016,08,19,03,30,24.10
2016,08,19,03,31,24.10
2016,08,19,03,32,24.10
2016,08,19,03,33,24.20
2016,08,19,03,34,24.20
2016,08,19,03,35,24.20
2016,08,19,03,36,24.20
2016,08,19,03,37,24.20
2016,08,19,03,38,24.20
2016,08,19,03,39,24.10
2016,08,19,03,40,24.10
2016,08,19,03,41,24.10
2016,08,19,03,42,24.10
2016,08,19,03,43,24.10
2016,08,19,03,44,23.90
2016,08,19,03,45,23.90
2016,08,19,03,46,23.80
2016,08,19,03,47,23.80
2016,08,19,03,48,23.70
2016,08,19,03,49,23.70
2016,08,19,03,50,23.70
2016,08,19,03,51,23.60
2016,08,19,03,52,23.60
2016,08,19,03,53,23.50
2016,08,19,03,54,23.40
2016,08,19,03,55,23.40
2016,08,19,03,56,23.40
2016,08,19,03,57,23.40
2016,08,19,03,58,23.30
2016,08,19,03,59,23.30
2016,08,19,04,00,23.30
2016,08,19,04,01,23.30
2016,08,19,04,02,23.30
2016,08,19,04,03,23.30
2016,08,19,04,04,23.30
2016,08,19,04,05,23.30
2016,08,19,04,06,23.30
2016,08,19,04,07,23.30
2016,08,19,04,08,23.20
2016,08,19,04,09,23.20
2016,08,19,04,10,23.10
2016,08,19,04,11,23.10
2016,08,19,04,12,23.00
2016,08,19,04,13,22.90
2016,08,19,04,14,22.90
2016,08,19,04,15,22.80
2016,08,19,04,16,22.80
2016,08,19,04,17,22.70
2016,08,19,04,18,22.70
2016,08,19,04,19,22.70
2016,08,19,04,20,22.60
2016,08,19,04,21,22.60
2016,08,19,04,22,22.60
2016,08,19,04,23,22.50
2016,08,19,04,24,22.50
2016,08,19,04,25,22.50
2016,08,19,04,26,22.40
2016,08,19,04,27,22.40
2016,08,19,04,28,22.40
2016,08,19,04,29,22.30
2016,08,19,04,30,22.30
2016,08,19,04,31,22.30
2016,08,19,04,32,22.20
2016,08,19,04,33,22.20
2016,08,19,04,34,22.10
2016,08,19,04,35,22.10
2016,08,19,04,36,22.10
2016,08,19,04,37,22.00
2016,08,19,04,38,22.00
2016,08,19,04,39,21.90
2016,08,19,04,40,21.90
2016,08,19,04,41,21.80
2016,08,19,04,42,21.70
2016,08,19,04,43,21.70
2016,08,19,04,44,21.60
2016,08,19,04,45,21.60
2016,08,19,04,46,21.60
2016,08,19,04,47,21.50
2016,08,19,04,48,21.40
2016,08,19,04,49,21.30
2016,08,19,04,50,21.30
2016,08,19,04,51,21.30
2016,08,19,04,52,21.20
2016,08,19,04,53,21.20
2016,08,19,04,54,21.20
2016,08,19,04,55,21.10
2016,08,19,04,56,21.10
2016,08,19,04,57,21.10
2016,08,19,04,58,21.10
2016,08,19,04,59,21.10
2016,08,19,05,00,21.10
2016,08,19,05,01,21.20
2016,08,19,05,02,21.20
2016,08,19,05,03,21.20
2016,08,19,05,04,21.20
2016,08,19,05,05,21.20
2016,08,19,05,06,21.20
2016,08,19,05,07,21.20
2016,08,19,05,08,21.20
2016,08,19,05,09,21.20
2016,08,19,05,10,21.20
2016,08,19,05,11,21.20
2016,08,19,05,12,21.20
2016,08,19,05,13,21.20
2016,08,19,05,14,21.20
2016,08,19,05,15,21.20
2016,08,19,05,16,21.10
2016,08,19,05,17,21.10
2016,08,19,05,18,21.10
2016,08,19,05,19,21.10
2016,08,19,05,20,21.00
2016,08,19,05,21,21.00
2016,08,19,05,22,21.00
2016,08,19,05,23,20.90
2016,08,19,05,24,20.90
2016,08,19,05,25,20.90
2016,08,19,05,26,20.80
2016,08,19,05,27,20.80
2016,08,19,05,28,20.80
2016,08,19,05,29,20.80
2016,08,19,05,30,20.80
2016,08,19,05,31,20.80
2016,08,19,05,32,20.80
2016,08,19,05,33,20.80
2016,08,19,05,34,20.80
2016,08,19,05,35,20.80
2016,08,19,05,36,20.80
2016,08,19,05,37,20.80
2016,08,19,05,38,20.80
2016,08,19,05,39,20.80
2016,08,19,05,40,20.80
2016,08,19,05,41,20.80
2016,08,19,05,42,20.80
2016,08,19,05,43,20.80
2016,08,19,05,44,20.70
2016,08,19,05,45,20.70
2016,08,19,05,46,20.70
2016,08,19,05,47,20.70
2016,08,19,05,48,20.70
2016,08,19,05,49,20.70
2016,08,19,05,50,20.70
2016,08,19,05,51,20.70
2016,08,19,05,52,20.70
2016,08,19,05,53,20.80
2016,08,19,05,54,20.80
2016,08,19,05,55,20.80
2016,08,19,05,56,20.80
2016,08,19,05,57,20.80
2016,08,19,05,58,20.90
2016,08,19,05,59,20.90
2016,08,19,06,00,20.90
2016,08,19,06,01,20.90
2016,08,19,06,02,20.90
2016,08,19,06,03,20.90
2016,08,19,06,04,20.90
2016,08,19,06,05,20.90
2016,08,19,06,06,20.90
2016,08,19,06,07,20.90
2016,08,19,06,08,20.90
2016,08,19,06,09,21.00
2016,08,19,06,10,21.00
2016,08,19,06,11,21.00
2016,08,19,06,12,21.00
2016,08,19,06,13,21.00
2016,08,19,06,14,21.00
2016,08,19,06,15,21.00
2016,08,19,06,16,21.00
2016,08,19,06,17,21.00
2016,08,19,06,18,21.00
2016,08,19,06,19,20.90
2016,08,19,06,20,20.90
2016,08,19,06,21,20.90
2016,08,19,06,22,20.90
2016,08,19,06,23,20.90
2016,08,19,06,24,20.90
2016,08,19,06,25,20.90
2016,08,19,06,26,20.90
2016,08,19,06,27,20.90
2016,08,19,06,28,20.90
2016,08,19,06,29,20.80
2016,08,19,06,30,20.80
2016,08,19,06,31,20.80
2016,08,19,06,32,20.80
2016,08,19,06,33,20.80
2016,08,19,06,34,20.80
2016,08,19,06,35,20.80
2016,08,19,06,36,20.80
2016,08,19,06,37,20.80
2016,08,19,06,38,20.90
2016,08,19,06,39,20.90
2016,08,19,06,40,20.80
2016,08,19,06,41,20.80
2016,08,19,06,42,20.80
2016,08,19,06,43,20.80
2016,08,19,06,44,20.80
2016,08,19,06,45,20.80
2016,08,19,06,46,20.80
2016,08,19,06,47,20.80
2016,08,19,06,48,20.80
2016,08,19,06,49,20.80
2016,08,19,06,50,20.90
2016,08,19,06,51,20.90
2016,08,19,06,52,20.90
2016,08,19,06,53,20.90
2016,08,19,06,54,21.00
2016,08,19,06,55,21.00
2016,08,19,06,56,21.00
2016,08,19,06,57,21.00
2016,08,19,06,58,21.10
2016,08,19,06,59,21.10
2016,08,19,07,00,21.10
2016,08,19,07,01,21.20
2016,08,19,07,02,21.20
2016,08,19,07,03,21.30
2016,08,19,07,04,21.30
2016,08,19,07,05,21.30
2016,08,19,07,06,21.30
2016,08,19,07,07,21.30
2016,08,19,07,08,21.30
2016,08,19,07,09,21.30
2016,08,19,07,10,21.30
2016,08,19,07,11,21.30
2016,08,19,07,12,21.30
2016,08,19,07,13,21.30
2016,08,19,07,14,21.30
2016,08,19,07,15,21.30
2016,08,19,07,16,21.30
2016,08,19,07,17,21.40
2016,08,19,07,18,21.40
2016,08,19,07,19,21.50
2016,08,19,07,20,21.60
2016,08,19,07,21,21.60
2016,08,19,07,22,21.60
2016,08,19,07,23,21.60
2016,08,19,07,24,21.70
2016,08,19,07,25,21.80
2016,08,19,07,26,21.90
2016,08,19,07,27,22.00
2016,08,19,07,28,22.00
2016,08,19,07,29,22.00
2016,08,19,07,30,22.10
2016,08,19,07,31,22.10
2016,08,19,07,32,22.10
2016,08,19,07,33,22.20
2016,08,19,07,34,22.20
2016,08,19,07,35,22.20
2016,08,19,07,36,22.20
2016,08,19,07,37,22.20
2016,08,19,07,38,22.20
2016,08,19,07,39,22.20
2016,08,19,07,40,22.20
2016,08,19,07,41,22.20
2016,08,19,07,42,22.20
2016,08,19,07,43,22.20
2016,08,19,07,44,22.20
2016,08,19,07,45,22.20
2016,08,19,07,46,22.20
2016,08,19,07,47,22.20
2016,08,19,07,48,22.20
2016,08,19,07,49,22.30
2016,08,19,07,50,22.30
2016,08,19,07,51,22.20
2016,08,19,07,52,22.20
2016,08,19,07,53,22.20
2016,08,19,07,54,22.30
2016,08,19,07,55,22.30
2016,08,19,07,56,22.30
2016,08,19,07,57,22.30
2016,08,19,07,58,22.30
2016,08,19,07,59,22.30
2016,08,19,08,00,22.30
2016,08,19,08,01,22.40
2016,08,19,08,02,22.40
2016,08,19,08,03,22.40
2016,08,19,08,04,22.40
2016,08,19,08,05,22.50
2016,08,19,08,06,22.50
2016,08,19,08,07,22.50
2016,08,19,08,08,22.60
2016,08,19,08,09,22.60
2016,08,19,08,10,22.70
2016,08,19,08,11,22.70
2016,08,19,08,12,22.70
2016,08,19,08,13,22.70
2016,08,19,08,14,22.80
2016,08,19,08,15,22.80
2016,08,19,08,16,22.80
2016,08,19,08,17,22.90
2016,08,19,08,18,22.90
2016,08,19,08,19,22.90
2016,08,19,08,20,22.90
2016,08,19,08,21,22.90
2016,08,19,08,22,23.00
2016,08,19,08,23,23.10
2016,08,19,08,24,23.10
2016,08,19,08,25,23.10
2016,08,19,08,26,23.10
2016,08,19,08,27,23.10
2016,08,19,08,28,23.10
2016,08,19,08,29,23.10
2016,08,19,08,30,23.00
2016,08,19,08,31,22.90
2016,08,19,08,32,22.90
2016,08,19,08,33,23.00
2016,08,19,08,34,23.10
2016,08,19,08,35,23.10
2016,08,19,08,36,23.10
2016,08,19,08,37,23.10
2016,08,19,08,38,23.20
2016,08,19,08,39,23.20
2016,08,19,08,40,23.20
2016,08,19,08,41,23.20
2016,08,19,08,42,23.20
2016,08,19,08,43,23.20
2016,08,19,08,44,23.20
2016,08,19,08,45,23.20
2016,08,19,08,46,23.20
2016,08,19,08,47,23.20
2016,08,19,08,48,23.20
2016,08,19,08,49,23.20
2016,08,19,08,50,23.20
2016,08,19,08,51,23.20
2016,08,19,08,52,23.30
2016,08,19,08,53,23.30
2016,08,19,08,54,23.30
2016,08,19,08,55,23.30
2016,08,19,08,56,23.40
2016,08,19,08,57,23.40
2016,08,19,08,58,23.50
2016,08,19,08,59,23.60
2016,08,19,09,00,23.70
2016,08,19,09,01,23.70
2016,08,19,09,02,23.80
2016,08,19,09,03,23.80
2016,08,19,09,04,23.90
2016,08,19,09,05,24.00
2016,08,19,09,06,24.10
2016,08,19,09,07,24.10
2016,08,19,09,08,24.10
2016,08,19,09,09,24.20
2016,08,19,09,10,24.20
2016,08,19,09,11,24.20
2016,08,19,09,12,24.20
2016,08,19,09,13,24.30
2016,08,19,09,14,24.30
2016,08,19,09,15,24.30
2016,08,19,09,16,24.30
2016,08,19,09,17,24.30
2016,08,19,09,18,24.30
2016,08,19,09,19,24.30
2016,08,19,09,20,24.40
2016,08,19,09,21,24.40
2016,08,19,09,22,24.40
2016,08,19,09,23,24.40
2016,08,19,09,24,24.40
2016,08,19,09,25,24.40
2016,08,19,09,26,24.40
2016,08,19,09,27,24.40
2016,08,19,09,28,24.40
2016,08,19,09,29,24.40
2016,08,19,09,30,24.40
2016,08,19,09,31,24.40
2016,08,19,09,32,24.40
2016,08,19,09,33,24.40
2016,08,19,09,34,24.40
2016,08,19,09,35,24.40
2016,08,19,09,36,24.40
2016,08,19,09,37,24.50
2016,08,19,09,38,24.50
2016,08,19,09,39,24.50
2016,08,19,09,40,24.60
2016,08,19,09,41,24.60
2016,08,19,09,42,24.60
2016,08,19,09,43,24.70
2016,08,19,09,44,24.70
2016,08,19,09,45,24.80
2016,08,19,09,46,24.80
2016,08,19,09,47,24.80
2016,08,19,09,48,24.90
2016,08,19,09,49,24.90
2016,08,19,09,50,25.00
2016,08,19,09,51,25.00
2016,08,19,09,52,25.10
2016,08,19,09,53,25.10
2016,08,19,09,54,25.10
2016,08,19,09,55,25.10
2016,08,19,09,56,25.10
2016,08,19,09,57,25.10
2016,08,19,09,58,25.10
2016,08,19,09,59,25.10
2016,08,19,10,00,25.10
2016,08,19,10,01,25.10
2016,08,19,10,02,25.10
2016,08,19,10,03,25.10
2016,08,19,10,04,25.20
2016,08,19,10,05,25.20
2016,08,19,10,06,25.20
2016,08,19,10,07,25.20
2016,08,19,10,08,25.20
2016,08,19,10,09,25.20
2016,08,19,10,10,25.20
2016,08,19,10,11,25.20
2016,08,19,10,12,25.20
2016,08,19,10,13,25.10
2016,08,19,10,14,25.10
2016,08,19,10,15,25.10
2016,08,19,10,16,25.10
2016,08,19,10,17,25.20
2016,08,19,10,18,25.20
2016,08,19,10,19,25.30
2016,08,19,10,20,25.30
2016,08,19,10,21,25.30
2016,08,19,10,22,25.20
2016,08,19,10,23,25.20
2016,08,19,10,24,25.20
2016,08,19,10,25,25.20
2016,08,19,10,26,25.30
2016,08,19,10,27,25.30
2016,08,19,10,28,25.40
2016,08,19,10,29,25.40
2016,08,19,10,30,25.40
2016,08,19,10,31,25.50
2016,08,19,10,32,25.50
2016,08,19,10,33,25.60
2016,08,19,10,34,25.60
2016,08,19,10,35,25.60
2016,08,19,10,36,25.60
2016,08,19,10,37,25.60
2016,08,19,10,38,25.60
2016,08,19,10,39,25.60
2016,08,19,10,40,25.60
2016,08,19,10,41,25.60
2016,08,19,10,42,25.70
2016,08,19,10,43,25.70
2016,08,19,10,44,25.80
2016,08,19,10,45,25.80
2016,08,19,10,46,25.90
2016,08,19,10,47,25.90
2016,08,19,10,48,26.00
2016,08,19,10,49,26.10
2016,08,19,10,50,26.20
2016,08,19,10,51,26.30
2016,08,19,10,52,26.30
2016,08,19,10,53,26.30
2016,08,19,10,54,26.20
2016,08,19,10,55,26.20
2016,08,19,10,56,26.20
2016,08,19,10,57,26.10
2016,08,19,10,58,26.10
2016,08,19,10,59,26.10
2016,08,19,11,00,26.10
2016,08,19,11,01,26.00
2016,08,19,11,02,26.00
2016,08,19,11,03,26.10
2016,08,19,11,04,26.10
2016,08,19,11,05,26.20
2016,08,19,11,06,26.20
2016,08,19,11,07,26.30
2016,08,19,11,08,26.40
2016,08,19,11,09,26.40
2016,08,19,11,10,26.50
2016,08,19,11,11,26.60
2016,08,19,11,12,26.60
2016,08,19,11,13,26.60
2016,08,19,11,14,26.50
2016,08,19,11,15,26.40
2016,08,19,11,16,26.40
2016,08,19,11,17,26.30
2016,08,19,11,18,26.40
2016,08,19,11,19,26.40
2016,08,19,11,20,26.40
2016,08,19,11,21,26.40
2016,08,19,11,22,26.40
2016,08,19,11,23,26.40
2016,08,19,11,24,26.40
2016,08,19,11,25,26.40
2016,08,19,11,26,26.30
2016,08,19,11,27,26.30
2016,08,19,11,28,26.40
2016,08,19,11,29,26.50
2016,08,19,11,30,26.60
2016,08,19,11,31,26.70
2016,08,19,11,32,26.80
2016,08,19,11,33,26.80
2016,08,19,11,34,26.90
2016,08,19,11,35,26.90
2016,08,19,11,36,26.90
2016,08,19,11,37,26.90
2016,08,19,11,38,26.90
2016,08,19,11,39,26.90
2016,08,19,11,40,26.90
2016,08,19,11,41,26.80
2016,08,19,11,42,26.80
2016,08,19,11,43,26.80
2016,08,19,11,44,26.80
2016,08,19,11,45,26.80
2016,08,19,11,46,26.70
2016,08,19,11,47,26.70
2016,08,19,11,48,26.60
2016,08,19,11,49,26.60
2016,08,19,11,50,26.50
2016,08,19,11,51,26.40
2016,08,19,11,52,26.40
2016,08,19,11,53,26.30
2016,08,19,11,54,26.30
2016,08,19,11,55,26.30
2016,08,19,11,56,26.30
2016,08,19,11,57,26.30
2016,08,19,11,58,26.30
2016,08,19,11,59,26.30
2016,08,19,12,00,26.40
2016,08,19,12,01,26.50
2016,08,19,12,02,26.60
2016,08,19,12,03,26.60
2016,08,19,12,04,26.60
2016,08,19,12,05,26.60
2016,08,19,12,06,26.60
2016,08,19,12,07,26.70
2016,08,19,12,08,26.70
2016,08,19,12,09,26.70
2016,08,19,12,10,26.70
2016,08,19,12,11,26.80
2016,08,19,12,12,26.80
2016,08,19,12,13,26.80
2016,08,19,12,14,26.80
2016,08,19,12,15,26.90
2016,08,19,12,16,26.90
2016,08,19,12,17,26.80
2016,08,19,12,18,26.80
2016,08,19,12,19,26.70
2016,08,19,12,20,26.70
2016,08,19,12,21,26.80
2016,08,19,12,22,26.80
2016,08,19,12,23,26.90
2016,08,19,12,24,26.90
2016,08,19,12,25,27.00
2016,08,19,12,26,27.10
2016,08,19,12,27,27.10
2016,08,19,12,28,27.10
2016,08,19,12,29,27.10
2016,08,19,12,30,27.20
2016,08,19,12,31,27.20
2016,08,19,12,32,27.30
2016,08,19,12,33,27.30
2016,08,19,12,34,27.40
2016,08,19,12,35,27.60
2016,08,19,12,36,27.60
2016,08,19,12,37,27.70
2016,08,19,12,38,27.70
2016,08,19,12,39,27.70
2016,08,19,12,40,27.70
2016,08,19,12,41,27.70
2016,08,19,12,42,27.70
2016,08,19,12,43,27.70
2016,08,19,12,44,27.70
2016,08,19,12,45,27.70
2016,08,19,12,46,27.80
2016,08,19,12,47,27.70
2016,08,19,12,48,27.60
2016,08,19,12,49,27.60
2016,08,19,12,50,27.50
2016,08,19,12,51,27.40
2016,08,19,12,52,27.30
2016,08,19,12,53,27.30
2016,08,19,12,54,27.30
2016,08,19,12,55,27.30
2016,08,19,12,56,27.30
2016,08,19,12,57,27.30
2016,08,19,12,58,27.30
2016,08,19,12,59,27.30
2016,08,19,13,00,27.30
2016,08,19,13,01,27.30
2016,08,19,13,02,27.30
2016,08,19,13,03,27.30
2016,08,19,13,04,27.30
2016,08,19,13,05,27.30
2016,08,19,13,06,27.30
2016,08,19,13,07,27.30
2016,08,19,13,08,27.30
2016,08,19,13,09,27.40
2016,08,19,13,10,27.50
2016,08,19,13,11,27.60
2016,08,19,13,12,27.60
2016,08,19,13,13,27.70
2016,08,19,13,14,27.70
2016,08,19,13,15,27.70
2016,08,19,13,16,27.70
2016,08,19,13,17,27.80
2016,08,19,13,18,27.80
2016,08,19,13,19,27.80
2016,08,19,13,20,27.80
2016,08,19,13,21,27.80
2016,08,19,13,22,27.80
2016,08,19,13,23,27.90
2016,08,19,13,24,28.00
2016,08,19,13,25,28.10
2016,08,19,13,26,28.20
2016,08,19,13,27,28.20
2016,08,19,13,28,28.30
2016,08,19,13,29,28.40
2016,08,19,13,30,28.60
2016,08,19,13,31,28.60
2016,08,19,13,32,28.70
2016,08,19,13,33,28.70
2016,08,19,13,34,28.70
2016,08,19,13,35,28.70
2016,08,19,13,36,28.70
2016,08,19,13,37,28.80
2016,08,19,13,38,28.80
2016,08,19,13,39,28.80
2016,08,19,13,40,28.70
2016,08,19,13,41,28.70
2016,08,19,13,42,28.70
2016,08,19,13,43,28.70
2016,08,19,13,44,28.70
2016,08,19,13,45,28.70
2016,08,19,13,46,28.80
2016,08,19,13,47,28.90
2016,08,19,13,48,28.90
2016,08,19,13,49,28.80
2016,08,19,13,50,28.80
2016,08,19,13,51,28.80
2016,08,19,13,52,28.80
2016,08,19,13,53,28.90
2016,08,19,13,54,28.90
2016,08,19,13,55,28.90
2016,08,19,13,56,28.90
2016,08,19,13,57,28.90
2016,08,19,13,58,28.90
2016,08,19,13,59,28.90
2016,08,19,14,00,28.90
2016,08,19,14,01,28.90
2016,08,19,14,02,28.80
2016,08,19,14,03,28.80
2016,08,19,14,04,28.80
2016,08,19,14,05,28.80
2016,08,19,14,06,28.80
2016,08,19,14,07,28.90
2016,08,19,14,08,28.90
2016,08,19,14,09,29.00
2016,08,19,14,10,29.10
2016,08,19,14,11,29.20
2016,08,19,14,12,29.30
2016,08,19,14,13,29.40
2016,08,19,14,14,29.40
2016,08,19,14,15,29.40
2016,08,19,14,16,29.40
2016,08,19,14,17,29.40
2016,08,19,14,18,29.40
2016,08,19,14,19,29.40
2016,08,19,14,20,29.50
2016,08,19,14,21,29.50
2016,08,19,14,22,29.50
2016,08,19,14,23,29.50
2016,08,19,14,24,29.60
2016,08,19,14,25,29.70
2016,08,19,14,26,29.70
2016,08,19,14,27,29.60
2016,08,19,14,28,29.50
2016,08,19,14,29,29.40
2016,08,19,14,30,29.40
2016,08,19,14,31,29.40
2016,08,19,14,32,29.40
2016,08,19,14,33,29.40
2016,08,19,14,34,29.40
2016,08,19,14,35,29.30
2016,08,19,14,36,29.30
2016,08,19,14,37,29.20
2016,08,19,14,38,29.20
2016,08,19,14,39,29.20
2016,08,19,14,40,29.20
2016,08,19,14,41,29.20
2016,08,19,14,42,29.20
2016,08,19,14,43,29.20
2016,08,19,14,44,29.20
2016,08,19,14,45,29.20
2016,08,19,14,46,29.20
2016,08,19,14,47,29.20
2016,08,19,14,48,29.20
2016,08,19,14,49,29.20
2016,08,19,14,50,29.30
2016,08,19,14,51,29.30
2016,08,19,14,52,29.50
2016,08,19,14,53,29.50
2016,08,19,14,54,29.60
2016,08,19,14,55,29.70
2016,08,19,14,56,29.80
2016,08,19,14,57,29.90
2016,08,19,14,58,29.90
2016,08,19,14,59,29.90
2016,08,19,15,00,30.00
2016,08,19,15,01,30.00
2016,08,19,15,02,29.90
2016,08,19,15,03,29.90
2016,08,19,15,04,29.90
2016,08,19,15,05,29.90
2016,08,19,15,06,29.90
2016,08,19,15,07,29.90
2016,08,19,15,08,29.90
2016,08,19,15,09,29.90
2016,08,19,15,10,30.00
2016,08,19,15,11,30.10
2016,08,19,15,12,30.20
2016,08,19,15,13,30.30
2016,08,19,15,14,30.30
2016,08,19,15,15,30.50
2016,08,19,15,16,30.60
2016,08,19,15,17,30.70
2016,08,19,15,18,30.80
2016,08,19,15,19,30.90
2016,08,19,15,20,30.80
2016,08,19,15,21,30.70
2016,08,19,15,22,30.70
2016,08,19,15,23,30.60
2016,08,19,15,24,30.40
2016,08,19,15,25,30.30
2016,08,19,15,26,30.30
2016,08,19,15,27,30.20
2016,08,19,15,28,30.20
2016,08,19,15,29,30.20
2016,08,19,15,30,30.30
2016,08,19,15,31,30.30
2016,08,19,15,32,30.30
2016,08,19,15,33,30.30
2016,08,19,15,34,30.30
2016,08,19,15,35,30.30
2016,08,19,15,36,30.40
2016,08,19,15,37,30.40
2016,08,19,15,38,30.60
2016,08,19,15,39,30.70
2016,08,19,15,40,30.80
2016,08,19,15,41,30.90
2016,08,19,15,42,30.90
2016,08,19,15,43,31.00
2016,08,19,15,44,31.10
2016,08,19,15,45,31.10
2016,08,19,15,46,31.10
2016,08,19,15,47,31.10
2016,08,19,15,48,31.20
2016,08,19,15,49,31.20
2016,08,19,15,50,31.30
2016,08,19,15,51,31.40
2016,08,19,15,52,31.40
2016,08,19,15,53,31.60
2016,08,19,15,54,31.60
2016,08,19,15,55,31.60
2016,08,19,15,56,31.60
2016,08,19,15,57,31.60
2016,08,19,15,58,31.70
2016,08,19,15,59,31.70
2016,08,19,16,00,31.70
2016,08,19,16,01,31.60
2016,08,19,16,02,31.50
2016,08,19,16,03,31.30
2016,08,19,16,04,31.30
2016,08,19,16,05,31.30
2016,08,19,16,06,31.20
2016,08,19,16,07,31.10
2016,08,19,16,08,31.10
2016,08,19,16,09,31.00
2016,08,19,16,10,30.90
2016,08,19,16,11,30.90
2016,08,19,16,12,30.80
2016,08,19,16,13,30.80
2016,08,19,16,14,30.80
2016,08,19,16,15,30.70
2016,08,19,16,16,30.70
2016,08,19,16,17,30.70
2016,08,19,16,18,30.70
2016,08,19,16,19,30.60
2016,08,19,16,20,30.60
2016,08,19,16,21,30.60
2016,08,19,16,22,30.60
2016,08,19,16,23,30.60
2016,08,19,16,24,30.40
2016,08,19,16,25,30.40
2016,08,19,16,26,30.40
2016,08,19,16,27,30.40
2016,08,19,16,28,30.30
2016,08,19,16,29,30.30
2016,08,19,16,30,30.30
2016,08,19,16,31,30.30
2016,08,19,16,32,30.30
2016,08,19,16,33,30.30
2016,08,19,16,34,30.30
2016,08,19,16,35,30.40
2016,08,19,16,36,30.50
2016,08,19,16,37,30.60
2016,08,19,16,38,30.60
2016,08,19,16,39,30.70
2016,08,19,16,40,30.80
2016,08,19,16,41,30.90
2016,08,19,16,42,30.90
2016,08,19,16,43,30.90
2016,08,19,16,44,30.90
2016,08,19,16,45,30.80
2016,08,19,16,46,30.80
2016,08,19,16,47,30.80
2016,08,19,16,48,30.80
2016,08,19,16,49,30.80
2016,08,19,16,50,30.80
2016,08,19,16,51,30.80
2016,08,19,16,52,30.80
2016,08,19,16,53,30.80
2016,08,19,16,54,30.80
2016,08,19,16,55,30.80
2016,08,19,16,56,30.80
2016,08,19,16,57,30.70
2016,08,19,16,58,30.70
2016,08,19,16,59,30.60
2016,08,19,17,00,30.60
2016,08,19,17,01,30.50
2016,08,19,17,02,30.40
2016,08,19,17,03,30.40
2016,08,19,17,04,30.40
2016,08,19,17,05,30.40
2016,08,19,17,06,30.40
2016,08,19,17,07,30.40
2016,08,19,17,08,30.40
2016,08,19,17,09,30.40
2016,08,19,17,10,30.40
2016,08,19,17,11,30.40
2016,08,19,17,12,30.40
2016,08,19,17,13,30.40
2016,08,19,17,14,30.40
2016,08,19,17,15,30.40
2016,08,19,17,16,30.40
2016,08,19,17,17,30.40
2016,08,19,17,18,30.40
2016,08,19,17,19,30.30